When you browse on this site, cookies collect data to enhance your experience and personalize the content and advertising you see.
Visit our Privacy Policy to learn more. By continuing to use the site, you agree to this use of cookies and data.
  • In Hungary
  • List of Countries
  • For 7 days
  • Water Temperature
  • Satellite Maps
  • Weather Map
  • News
  • Weather Widgets
  • user-avatar
    Login

    Hourly Weather Agadir

    Today, 20 January, Sunday

    Time Temperature Precipitation Wind Pressure Humidity
    00:00 +14°C° 0 mm 2 mps 766 mmHg 76%
    01:00 +13°C° 0 mm 2 mps 766 mmHg 76%
    02:00 +13°C° 0 mm 2 mps 766 mmHg 77%
    03:00 +13°C° 0 mm 2 mps 766 mmHg 78%
    04:00 +12°C° 0 mm 3 mps 766 mmHg 79%
    05:00 +12°C° 0 mm 3 mps 766 mmHg 80%
    06:00 +13°C° 0 mm 3 mps 766 mmHg 76%
    07:00 +16°C° 0 mm 3 mps 766 mmHg 73%
    08:00 +17°C° 0 mm 3 mps 766 mmHg 69%
    09:00 +18°C° 0 mm 4 mps 766 mmHg 63%
    10:00 +20°C° 0 mm 4 mps 765 mmHg 58%
    11:00 +22°C° 0 mm 5 mps 765 mmHg 52%
    12:00 +22°C° 0 mm 6 mps 765 mmHg 52%
    13:00 +22°C° 0 mm 7 mps 764 mmHg 52%
    14:00 +22°C° 0 mm 7 mps 764 mmHg 53%
    15:00 +21°C° 0 mm 7 mps 764 mmHg 57%
    16:00 +20°C° 0 mm 7 mps 764 mmHg 62%
    17:00 +18°C° 0 mm 7 mps 764 mmHg 67%
    18:00 +17°C° 0 mm 6 mps 764 mmHg 72%
    19:00 +16°C° 0 mm 5 mps 764 mmHg 77%
    20:00 +15°C° 0 mm 5 mps 765 mmHg 82%
    21:00 +15°C° 0 mm 4 mps 765 mmHg 83%
    22:00 +14°C° 0 mm 4 mps 765 mmHg 84%
    23:00 +14°C° 0 mm 4 mps 765 mmHg 86%

    Tomorrow, 21 January, Monday

    Time Temperature Precipitation Wind Pressure Humidity
    00:00 +13°C° 0 mm 4 mps 764 mmHg 85%
    01:00 +13°C° 0 mm 3 mps 764 mmHg 85%
    02:00 +12°C° 0 mm 3 mps 764 mmHg 85%
    03:00 +12°C° 0 mm 4 mps 764 mmHg 84%
    04:00 +12°C° 0 mm 4 mps 764 mmHg 84%
    05:00 +11°C° 0 mm 4 mps 764 mmHg 83%
    06:00 +12°C° 0 mm 4 mps 764 mmHg 76%
    07:00 +13°C° 0 mm 4 mps 764 mmHg 70%
    08:00 +14°C° 0 mm 4 mps 764 mmHg 63%
    09:00 +17°C° 0 mm 4 mps 764 mmHg 54%
    10:00 +19°C° 0 mm 4 mps 764 mmHg 46%
    11:00 +20°C° 0 mm 4 mps 764 mmHg 37%
    12:00 +21°C° 0 mm 5 mps 763 mmHg 32%
    13:00 +22°C° 0 mm 7 mps 763 mmHg 28%
    14:00 +23°C° 0 mm 8 mps 762 mmHg 23%
    15:00 +21°C° 0 mm 8 mps 763 mmHg 27%
    16:00 +20°C° 0 mm 8 mps 763 mmHg 30%
    17:00 +18°C° 0 mm 8 mps 763 mmHg 33%
    18:00 +17°C° 0 mm 7 mps 763 mmHg 36%
    19:00 +15°C° 0 mm 7 mps 764 mmHg 39%
    20:00 +14°C° 0 mm 7 mps 764 mmHg 42%
    21:00 +14°C° 0 mm 6 mps 764 mmHg 45%
    22:00 +13°C° 0 mm 6 mps 765 mmHg 47%
    23:00 +12°C° 0 mm 5 mps 765 mmHg 49%

    Day after tomorrow, 22 January, Tuesday

    Time Temperature Precipitation Wind Pressure Humidity
    00:00 +12°C° 0 mm 5 mps 765 mmHg 48%
    01:00 +12°C° 0 mm 4 mps 765 mmHg 47%
    02:00 +11°C° 0 mm 4 mps 765 mmHg 46%
    03:00 +11°C° 0 mm 4 mps 765 mmHg 46%
    04:00 +11°C° 0 mm 3 mps 765 mmHg 45%
    05:00 +10°C° 0 mm 3 mps 765 mmHg 44%
    06:00 +13°C° 0 mm 2 mps 765 mmHg 42%
    07:00 +14°C° 0 mm 2 mps 766 mmHg 39%
    08:00 +16°C° 0 mm 2 mps 766 mmHg 37%
    09:00 +17°C° 0 mm 2 mps 766 mmHg 34%
    10:00 +18°C° 0 mm 2 mps 766 mmHg 31%
    11:00 +20°C° 0 mm 2 mps 766 mmHg 28%
    12:00 +20°C° 0 mm 3 mps 766 mmHg 26%
    13:00 +21°C° 0 mm 4 mps 765 mmHg 23%
    14:00 +22°C° 0 mm 5 mps 765 mmHg 21%
    15:00 +20°C° 0 mm 4 mps 765 mmHg 26%
    16:00 +19°C° 0 mm 4 mps 765 mmHg 31%
    17:00 +17°C° 0 mm 4 mps 765 mmHg 35%
    18:00 +15°C° 0 mm 4 mps 765 mmHg 37%
    19:00 +14°C° 0 mm 4 mps 766 mmHg 39%
    20:00 +13°C° 0 mm 4 mps 766 mmHg 41%
    21:00 +13°C° 0 mm 4 mps 766 mmHg 42%
    22:00 +12°C° 0 mm 4 mps 766 mmHg 42%
    23:00 +12°C° 0 mm 4 mps 766 mmHg 43%

    23 January, Wednesday

    Time Temperature Precipitation Wind Pressure Humidity
    00:00 +12°C° 0 mm 4 mps 766 mmHg 45%
    01:00 +11°C° 0 mm 3 mps 766 mmHg 47%
    02:00 +11°C° 0 mm 3 mps 765 mmHg 49%
    03:00 +11°C° 0 mm 3 mps 765 mmHg 50%
    04:00 +11°C° 0 mm 3 mps 765 mmHg 50%
    05:00 +11°C° 0 mm 3 mps 764 mmHg 51%
    06:00 +12°C° 0 mm 3 mps 765 mmHg 48%
    07:00 +13°C° 0 mm 3 mps 765 mmHg 45%
    08:00 +14°C° 0 mm 3 mps 765 mmHg 42%
    09:00 +17°C° 0 mm 3 mps 765 mmHg 39%
    10:00 +19°C° 0 mm 3 mps 764 mmHg 35%
    11:00 +20°C° 0 mm 3 mps 764 mmHg 31%
    12:00 +21°C° 0 mm 4 mps 763 mmHg 30%
    13:00 +22°C° 0 mm 4 mps 763 mmHg 30%
    14:00 +23°C° 0 mm 5 mps 762 mmHg 29%
    15:00 +21°C° 0 mm 4 mps 762 mmHg 34%
    16:00 +20°C° 0 mm 4 mps 762 mmHg 39%
    17:00 +19°C° 0 mm 4 mps 762 mmHg 44%
    18:00 +18°C° 0 mm 4 mps 762 mmHg 46%
    19:00 +17°C° 0 mm 3 mps 762 mmHg 48%
    20:00 +16°C° 0 mm 3 mps 763 mmHg 50%
    21:00 +14°C° 0 mm 3 mps 762 mmHg 50%
    22:00 +14°C° 0 mm 3 mps 762 mmHg 51%
    23:00 +13°C° 0 mm 3 mps 762 mmHg 51%

    24 January, Thursday

    Time Temperature Precipitation Wind Pressure Humidity
    00:00 +14°C° 0 mm 2 mps 761 mmHg 51%
    01:00 +13°C° 0 mm 2 mps 760 mmHg 51%
    02:00 +13°C° 0 mm 2 mps 760 mmHg 51%
    03:00 +13°C° 0 mm 2 mps 759 mmHg 51%
    04:00 +12°C° 0 mm 1 mps 759 mmHg 52%
    05:00 +12°C° 0 mm 1 mps 759 mmHg 52%
    06:00 +14°C° 0 mm 1 mps 759 mmHg 49%
    07:00 +15°C° 0 mm 1 mps 759 mmHg 45%
    08:00 +18°C° 0 mm 1 mps 760 mmHg 41%
    09:00 +19°C° 0 mm 1 mps 759 mmHg 40%
    10:00 +19°C° 0 mm 2 mps 759 mmHg 38%
    11:00 +21°C° 0 mm 2 mps 759 mmHg 37%
    12:00 +21°C° 0 mm 2 mps 759 mmHg 36%
    13:00 +22°C° 0 mm 3 mps 758 mmHg 35%
    14:00 +22°C° 0 mm 3 mps 757 mmHg 34%
    15:00 +21°C° 0 mm 3 mps 757 mmHg 39%
    16:00 +20°C° 0 mm 2 mps 758 mmHg 44%
    17:00 +19°C° 0 mm 2 mps 758 mmHg 49%
    18:00 +18°C° 0 mm 2 mps 758 mmHg 53%
    19:00 +17°C° 0 mm 2 mps 759 mmHg 57%
    20:00 +16°C° 0 mm 2 mps 760 mmHg 61%
    21:00 +16°C° 0 mm 2 mps 760 mmHg 59%
    22:00 +16°C° 0 mm 2 mps 760 mmHg 58%
    23:00 +15°C° 0 mm 2 mps 760 mmHg 56%

    25 January, Friday

    Time Temperature Precipitation Wind Pressure Humidity
    00:00 +15°C° 0 mm 2 mps 760 mmHg 51%
    01:00 +15°C° 0 mm 2 mps 760 mmHg 47%
    02:00 +15°C° 0 mm 2 mps 760 mmHg 43%
    03:00 +15°C° 0 mm 2 mps 760 mmHg 41%
    04:00 +15°C° 0 mm 2 mps 760 mmHg 39%
    05:00 +15°C° 0 mm 2 mps 760 mmHg 36%
    06:00 +16°C° 0 mm 2 mps 761 mmHg 34%
    07:00 +17°C° 0 mm 2 mps 761 mmHg 32%
    08:00 +19°C° 0 mm 2 mps 762 mmHg 30%
    09:00 +20°C° 0 mm 2 mps 762 mmHg 27%
    10:00 +23°C° 0 mm 1 mps 762 mmHg 24%
    11:00 +24°C° 0 mm 1 mps 762 mmHg 20%
    12:00 +25°C° 0 mm 2 mps 762 mmHg 21%
    13:00 +25°C° 0 mm 3 mps 762 mmHg 22%
    14:00 +25°C° 0 mm 4 mps 761 mmHg 22%
    15:00 +24°C° 0 mm 3 mps 761 mmHg 28%
    16:00 +21°C° 0 mm 3 mps 762 mmHg 34%
    17:00 +20°C° 0 mm 3 mps 762 mmHg 40%
    18:00 +19°C° 0 mm 3 mps 762 mmHg 43%
    19:00 +18°C° 0 mm 2 mps 763 mmHg 46%
    20:00 +17°C° 0 mm 2 mps 763 mmHg 49%
    21:00 +16°C° 0 mm 2 mps 763 mmHg 50%
    22:00 +16°C° 0 mm 1 mps 763 mmHg 50%
    23:00 +15°C° 0 mm 1 mps 763 mmHg 51%
    Show more